This demonstration page uses our WeatherBlox Daily Observations layout. Learn more.

Left ArrowRight Arrow

39.95238, -75.16362

Hourly Observations for February 9, 2023

Temp ( °F °C ) Dew Point ( °F °C ) Humidity (%) Winds ( mph kmh ) Pressure ( in mb ) Visibility ( mi km ) Precip ( " mm )
12:54 am 00:54 Mostly Clear 34 1.1 31 -0.6 88 88 ENE 3 6 30.30 1026 10 16 0.00 0.00
1:54 am 01:54 Partly Cloudy 34 1.1 30 -1.1 85 85 Calm 30.30 1026 10 16 0.00 0.00
2:54 am 02:54 Mostly Clear 33 0.6 30 -1.1 88 88 Calm 30.28 1026 10 16 0.00 0.00
3:49 am 03:49 Cloudy 37 3 34 1 87 87 Calm 30.29 1026 8 13 0.00 0.00
3:54 am 03:54 Cloudy 37 2.8 33 0.6 85 85 Calm 30.29 1026 8 13 0.00 0.00
4:54 am 04:54 Cloudy 36 2.2 32 0 85 85 NNW 3 6 30.29 1026 8 13 0.00 0.00
5:01 am 05:01 Cloudy 37 2.8 32 0 82 82 NE 3 6 30.29 1026 10 16 0.00 0.00
5:54 am 05:54 Cloudy 38 3.3 32 0 79 79 N 6 9 30.28 1026 10 16 0.00 0.00
6:54 am 06:54 Cloudy 39 3.9 35 1.7 86 86 NNE 3 6 30.28 1025 10 16 0.00 0.00
7:54 am 07:54 Cloudy 41 5 36 2.2 82 82 Calm 30.29 1026 10 16 0.00 0.00
8:54 am 08:54 Cloudy 42 5.6 34 1.1 73 73 E 9 15 30.25 1025 10 16 0.00 0.00
9:54 am 09:54 Cloudy 46 7.8 38 3.3 73 73 E 6 9 30.23 1024 10 16 0.00 0.00
10:54 am 10:54 Cloudy 52 11.1 43 6.1 71 71 SE 6 9 30.19 1023 10 16 0.00 0.00
11:54 am 11:54 Cloudy 53 11.7 43 6.1 68 68 SE 6 9 30.15 1021 10 16 0.00 0.00
12:54 pm 12:54 Cloudy 56 13.3 42 5.6 60 60 SSE 8 13 30.09 1019 10 16 0.00 0.00
1:54 pm 13:54 Mostly Cloudy 60 15.6 45 7.2 57 57 S 7 11 30.06 1018 10 16 0.00 0.00
2:54 pm 14:54 Cloudy 60 15.6 46 7.8 60 60 SSE 8 13 30.01 1016 10 16 0.00 0.00
3:54 pm 15:54 Mostly Cloudy 60 15.6 47 8.3 62 62 SSE 9 15 29.99 1016 10 16 0.00 0.00
4:54 pm 16:54 Mostly Cloudy 60 15.6 47 8.3 62 62 SSE 9 15 29.96 1015 10 16 0.00 0.00
5:54 pm 17:54 Mostly Cloudy 60 15.6 47 8.3 62 62 SSE 13 20 29.92 1013 10 16 0.00 0.00
6:54 pm 18:54 Mostly Cloudy 60 15.6 46 7.8 60 60 SSE 9 15 29.90 1013 10 16 0.00 0.00
7:54 pm 19:54 Mostly Cloudy 61 16.1 45 7.2 56 56 S 14 22 29.88 1012 10 16 0.00 0.00
8:54 pm 20:54 Mostly Cloudy 59 15 46 7.8 62 62 SSW 10 17 29.87 1011 10 16 0.00 0.00
9:54 pm 21:54 Mostly Cloudy 59 15 47 8.3 64 64 SSW 10 17 29.83 1010 10 16 0.00 0.00
10:54 pm 22:54 Mostly Clear 59 15 47 8.3 64 64 SSW 13 20 29.82 1010 10 16 0.00 0.00
11:54 pm 23:54 Partly Cloudy 59 15 48 8.9 67 67 SSW 12 19 29.81 1009 10 16 0.00 0.00

Powered by AerisWeather